Regional Weather Roundup
Issued by NWS

Home | Current Version | Previous Version | Text Only | Print | Product List | Glossary On
Versions: 1 2 3 4 5 6 7 8 9 10 11 12 13 14 15 16 17 18 19 20 21 22 23 24 25 26 27
000
ASUS42 KFFC 011003
RWRGA
WEATHER ROUNDUP FOR GEORGIA
NATIONAL WEATHER SERVICE PEACHTREE CITY GA
600 AM EDT SUN MAY 01 2016

NOTE: "FAIR" INDICATES FEW OR NO CLOUDS BELOW 12,000 FEET WITH NO
SIGNIFICANT WEATHER AND/OR OBSTRUCTIONS TO VISIBILITY.

* = USE WITH CAUTION. THE STATIONS MARKED WITH AN ASTERISK MAY NOT
REPORT WEATHER SUCH AS PRECIPITATION, FOG, OR THUNDER AND ARE NOT
QUALITY CONTROLLED BY NWS.

THE REMARK "TC" DENOTES TEMPERATURE READING IN DEGREES CELSIUS.

GAZ001>058-011100-
NORTH GEORGIA

CITY           SKY/WX    TMP DP  RH WIND       PRES   REMARKS
ATLANTA        PTCLDY    67  64  90 CALM      30.00R FOG
ATHENS         CLOUDY    68  68 100 CALM      30.00R FOG
CHAMBLEE       CLEAR     65  65 100 CALM      30.00R
PEACHTREE CITY CLOUDY    63  63 100 CALM      30.01R FOG
ROME           MOCLDY    64  61  90 CALM      29.98R
WEST ATLANTA   FOG       65  63  93 CALM      30.00R VSB 1/2
GAINESVILLE    MOCLDY    65  64  97 CALM      30.03R
CARTERSVILLE   CLOUDY    66  64  93 CALM      30.00R


CITY           SKY/WX    TMP DP  RH WIND       PRES   REMARKS
DALTON*        PTCLDY    63  63 100 CALM      29.98R FOG
MARIETTA       FOG       66  66 100 CALM      30.00R VSB 3/4
CANTON*        MOCLDY    64  63  94 CALM      30.02R FOG
BLAIRSVILLE*     N/A    N/A N/A N/A MISG      30.03R
$$

GAZ059>098-102>109-011100-
CENTRAL GEORGIA

CITY           SKY/WX    TMP DP  RH WIND       PRES   REMARKS
AUGUSTA-BUSH   CLOUDY    72  69  90 SE7       30.00S
AUGUSTA-DANIEL CLOUDY    73  67  81 SE5       30.01S
COLUMBUS       CLEAR     68  64  87 CALM      29.98R
MACON          PTCLDY    67  65  93 SE3       30.00R
ROBINS AFB     PTCLDY    67  67 100 S5        30.00R


CITY           SKY/WX    TMP DP  RH WIND       PRES   REMARKS
LAGRANGE*      FOG       65  65 100 CALM      29.99S VSB 1/2
SYLVANIA*      MOCLDY    72  72  99 S3        30.02S
MILLEDGEVILLE* MOCLDY    68  68 100 CALM      30.00R FOG
$$

GAZ099>101-110>166-011100-
SOUTH GEORGIA

CITY           SKY/WX    TMP DP  RH WIND       PRES   REMARKS
SAVANNAH       MOCLDY    74  71  91 S8        30.03R
VALDOSTA       CLOUDY    70  70 100 CALM      29.99R
ALMA           CLOUDY    71  70  96 SE6       30.00R
ST SIMONS      PTCLDY    73  72  96 S5        30.02R
FT STEWART     CLOUDY    73  70  91 SE3       30.00R
ALBANY         CLOUDY    71  67  87 CALM      30.00R
HUNTER AFB     MOCLDY    75  75 100 SE6       30.01R
MOODY AFB      CLOUDY    70  67  91 S3        29.99R
BRUNSWICK      MOCLDY    77  72  83 S8        30.02S


CITY           SKY/WX    TMP DP  RH WIND       PRES   REMARKS
BAINBRIDGE*    CLOUDY    72  70  94 CALM      29.98R
MOULTRIE*      CLOUDY    70  68  94 CALM      30.00R
VIDALIA*       MOCLDY    72  68  88 CALM      30.02R
WAYCROSS*      CLOUDY    72  70  94 S8        30.00R
DOUGLAS*       CLOUDY    72  70  94 CALM      30.02R
$$




USA.gov is the U.S. government's official web portal to all federal, state and local government web resources and services.